Welcome to the New NWS' Forecast!
Most changes are behind the scenes, but click here for differences you might notice.
Latest weather observations around

Edwards Air Force Base (KEDW)

Using English Units (Switch to International System of Units)
Date/ Time (PST) Wind (mph) Vis. (mi) Weather Sky Cond. Temp (°F) Rel. Humidity Wind Chill (°F) Heat Index (°F) Pressure Precip. (in)
Air Dwpt 6 hour Altimeter (inHg) Sea level (inHg) 1 hr 3 hr 6 hr
Max Min
Nov 21 09:56 Calm 50.89 Mostly Cloudy FEW190 BKN270 55 8     15%     30.28 30.27      
Nov 21 08:56 Calm 50.89 Mostly Cloudy FEW190 BKN270 47 6     18%     30.26 30.26      
Nov 21 07:56 Calm 50.89 Mostly Cloudy FEW190 BKN270 45 5     19%     30.25 30.25      
Nov 21 06:58 Calm 50.89 Mostly Cloudy FEW190 BKN270 38 5     24%     30.23 30.23      
Nov 21 05:58 Calm 50.89 Mostly Cloudy FEW200 BKN250 38 5     24%     30.21 30.21      
Nov 21 04:58 Calm 10 Clear CLR 39 6     25%     30.18 30.17      
Nov 21 03:58 NNW 3 10 Clear CLR 43 7     22% 41   30.17 30.15      
Nov 21 02:58 S 3 10 Clear CLR 39 5     24% 37   30.17 30.16      
Nov 21 01:58 Calm 10 Mostly Clear FEW210 41 5     22%     30.16 30.15      
Nov 21 01:43 SSE 5 10 Mostly Cloudy SCT180 BKN210 BKN230 43 5     21% 40   30.16 30.15      
Nov 21 01:28 Calm 10 Mostly Cloudy BKN180 43 5     21%     30.15 30.14      
Nov 21 00:58 Calm 10 Mostly Cloudy SCT170 BKN210 45 5     19%     30.15 30.14      
Nov 21 00:43 NNW 5 10 Mostly Cloudy BKN180 46 5     18% 44   30.14 30.13      
Nov 20 23:58 NNE 6 10 Clear CLR 46 5     18% 43   30.15 30.14      
Nov 20 22:58 N 8 10 Clear CLR 46 5     18% 42   30.15 30.14      
Nov 20 21:58 NNE 5 50 Mostly Cloudy SCT180 BKN300 49 6     17% 48   30.14 30.14      
Nov 20 20:58 Calm 50 Mostly Cloudy FEW190 BKN300 51 5     15%     30.13 30.13      
Nov 20 19:58 Calm 50 Mostly Cloudy SCT190 BKN300 53 6     15%     30.11 30.12      
Nov 20 18:58 N 7 50 Mostly Cloudy BKN300 56 4     12%     30.1 30.11      
Nov 20 17:58 NNW 6 50 Mostly Cloudy FEW160 BKN300 57 5     12%     30.07 30.08      
Nov 20 16:58 Calm 50.89 Mostly Cloudy FEW160 BKN300 63 3     9%     30.05 30.05      
Nov 20 15:58 Calm 50.89 Cloudy FEW160 SCT250 OVC300 69 2     7%     30.04 30.03      
Nov 20 14:58 NE 5 50.89 Mostly Cloudy FEW160 BKN250 69 2     7%     30.02 30.01      
Nov 20 13:58 NNE 7 50.89 Mostly Cloudy FEW160 BKN250 66 0     7%     30.04 30.03      
Nov 20 12:58 N 3 50.89 Mostly Cloudy FEW160 BKN250 61 4     10%     30.04 30.04      
Nov 20 11:58 N 3 50.89 Mostly Cloudy FEW160 BKN250 60 3     10%     30.06 30.06      
Nov 20 10:58 NNE 5 50.89 Mostly Cloudy FEW160 BKN250 53 4     13%     30.09 30.1      
Nov 20 09:58 Calm 50.89 Mostly Cloudy FEW160 BKN250 49        %     30.11 30.12      
Nov 20 08:58 Calm 50.89 Mostly Cloudy SCT160 BKN250 44 4     19%       30.11      
Nov 20 07:58 Calm 50.89 Mostly Cloudy FEW160 BKN250 37 2     22%       30.11      
Nov 20 06:58 N 5 50.89 Mostly Cloudy FEW160 BKN250 33 1     25% 29     30.09      
Nov 20 05:58 N 3 50.89 Mostly Cloudy FEW150 BKN250 32 0     24% 29     30.06      
Nov 20 04:58 Calm 10 Clear CLR 32 -1     24%       30.05      
Nov 20 03:58 Calm 10 Mostly Clear FEW170 33 -1     23%       30.06      
Nov 20 02:58 Calm 10 Mostly Clear FEW170 31 0     27%       30.07      
Nov 20 01:58 W 3 10 Clear CLR 32 2     27% 29     30.06      
Nov 20 00:58 Calm 10 Clear CLR 35 0     22%       30.07      
Nov 19 23:58 N 3 10 Clear CLR 35 0     22% 33     30.08      
Nov 19 22:58 Calm 10 Clear CLR 37 3     24%       30.08      
Nov 19 21:58 WSW 6 10 Clear CLR 40 4     22% 36   30.07 30.09      
Nov 19 20:58 WSW 3 10 Clear CLR 42 2     18% 40     30.1      
Nov 19 19:58 SSW 5 10 Clear CLR 43 1     17% 40   30.07 30.1      
Nov 19 18:58 SSW 6 10 Clear CLR 44 2     17% 40     30.11      
Nov 19 17:58 W 6 10 Clear CLR 52 4     14%       30.07      
Nov 19 16:58 NNW 3 10 Clear CLR 58 1     10%     30.04 30.06      
Nov 19 15:58 Calm 50.89 Mostly Cloudy BKN250 62        %     30.05 30.06      
Nov 19 14:58 N 3 50.89 Mostly Cloudy BKN250 62        %       30.06      
Nov 19 13:58 N 3 50.89 Mostly Cloudy BKN250 61        %       30.07      
Nov 19 12:58 Calm 50.89 Mostly Cloudy BKN250 58 6     12%     30.09 30.09      
Nov 19 11:58 Calm 50.89 Partly Cloudy SCT250 55 9     16%     30.13 30.14      
Nov 19 10:58 NE 5 50.89 Mostly Cloudy BKN250 51 11     20%     30.16 30.17      
Nov 19 09:58 Calm 50.89 Mostly Cloudy BKN250 48 10     21%       30.21      
Nov 19 08:58 WNW 5 50.89 Mostly Cloudy BKN250 39 9     28% 36     30.22      
Nov 19 07:58 WSW 3 10 Clear CLR 31 9     39% 28     30.23      
Nov 19 06:58 S 3 10 Clear CLR 24 3     39% 20     30.23      
Nov 19 05:58 Calm 10 Clear CLR 27 3     35%       30.22      
Nov 19 04:58 Calm 10 Clear CLR 27 7     41%       30.18      
Nov 19 03:58 SW 5 10 Clear CLR 26 4     38% 21     30.19      
Nov 19 02:58 W 6 10 Clear CLR 31 6     35% 25     30.18      
Nov 19 01:58 W 9 10 Clear CLR 34 7     32% 26     30.19      
Nov 19 00:58 WSW 6 10 Clear CLR 34 8     33% 28     30.19      
Nov 18 23:58 WSW 5 10 Clear CLR 36 6     28% 32     30.21      
Nov 18 22:58 Calm 10 Clear CLR 40 5     23%       30.21      
Nov 18 21:58 N 9 10 Clear CLR 44 6     20% 39     30.21      
Nov 18 20:58 NNW 7 10 Clear CLR 44 7     21% 40     30.22      
Nov 18 19:58 N 6 10 Clear CLR 46 8     21% 43     30.21      
Nov 18 18:58 NNE 3 10 Clear CLR 49 10     20% 49     30.21      
Nov 18 17:58 E 7 50 Partly Cloudy SCT300 51 11     20%       30.2      
Nov 18 16:58 E 5 50.89 Mostly Cloudy BKN300 56 12     17%     30.18 30.19      
Nov 18 15:58 ENE 7 50.89 Mostly Cloudy BKN300 63 11     13%     30.17 30.17      
Nov 18 14:58 NE 7 50.89 Partly Cloudy SCT300 65 9     11%     30.18 30.17      
Nov 18 13:58 NE 7 50.89 Mostly Clear FEW300 63 10     12%       30.18      
Nov 18 12:58 NE 9 50.89 Mostly Clear FEW300 63 11     13%       30.21      
Nov 18 11:58 ENE 6 50.89 Mostly Clear FEW200 61 12     14%     30.25 30.25      
Nov 18 10:58 ENE 10 50.89 Mostly Clear FEW200 60 12     15%       30.28      
Notice The following observation data may not be complete
Nov 18 09:58 N 6 50.89 Clear CLR   27      %       30.31      
Jun 12 03:58 W 14 10 Clear CLR 51 35     54%     29.96 29.93      
Jun 11 15:58 WSW 29 50.89 Partly Cloudy and Breezy SCT045 SCT180 68 44     43%     29.82 29.78      
Jun 11 12:58 WSW 25 50.89 Clear and Windy   69 43     40%     29.82 29.78      
Jun 11 07:58 WSW 25 10 Clear and Windy CLR 58 39     50%     29.8 29.76      
Jun 10 15:58 SW 32 50 Mostly Cloudy and Breezy FEW200 BKN260 74 48     40%   73 29.76 29.71      
Jun 10 11:58 SW 21 50 Mostly Cloudy and Windy BKN300 74 40     30%   73 29.8 29.75      
Jun 10 08:58 WSW 24 50 Mostly Clear and Windy FEW300 67 46     46%     29.82 29.77      
Jun 10 06:58 SW 15 50 Clear CLR 60 49     67%     29.82 29.77      
Jun 09 13:58 SW 22 50 Mostly Clear and Windy FEW060 FEW280 83 48     29%   82 29.84 29.78      
Jun 08 21:58 WSW 15 40 Clear CLR 74 27     17%   71 29.91 29.85      
Jun 08 18:58 WNW 21 50.89 Mostly Cloudy and Windy BKN280 83        %     29.87 29.81      
Jun 08 16:58 SW 24 50.89 Mostly Cloudy and Windy BKN280 87 40     19%   83 29.87 29.8      
Jun 08 14:58 SW 25 50.89 Mostly Cloudy and Windy BKN280 88 41     20%   84 29.89 29.82      
Jun 08 10:58 SW 11 50.89 Mostly Cloudy FEW150 BKN250 81 37     20%   80 29.93 29.86      
Jun 08 05:58 SW 10 50.89 Mostly Cloudy BKN250 61 46     57%     29.93 29.87      
Notice The following observation data may not be complete
Jun 07 20:58   40 Mostly Cloudy BKN300          %              
Jun 07 19:58 SW 20 50.89 Partly Cloudy and Windy SCT300 79 33     19%   77 29.85 29.78      
Jun 07 13:15 WSW 13 50.89 Mostly Cloudy BKN300 95 21     7%   89 29.87 29.79      
Jun 07 12:58 SSW 9 50.89 Mostly Cloudy BKN300 94        %     29.88 29.8      
Jun 06 00:58 SSW 8 10 Clear CLR 68 38     34%     29.87 29.8      
Jun 05 21:58 SW 11 50 Partly Cloudy SCT330 75 41     29%   74 29.88 29.8      
Jun 05 20:58 WSW 14 50 Partly Cloudy SCT330 79 44     29%   78 29.86 29.78      
Jun 05 15:16   50.89 Mostly Clear FEW330 97 23     7%   90 29.8 29.72      
Jun 05 14:58 WSW 16 50.89 Mostly Clear FEW330 97        %     29.81 29.73      
Notice The following observation data may not be complete
Jun 05 12:58   50.89 Mostly Clear FEW300          %